#timestamp,LO_Frequency,Hit,StdDev 
1661889615.6,286046996.9,N
1661889635.4,286046999.2,N
1661889655.2,286046997.7,N
1661889675.1,286046995.7,N
1661889676.0,286046995.7,N
1661889695.8,286046998.4,N
1661889715.7,286046996.6,N
1661889735.5,286046995.6,N
1661889755.3,286046995.2,N
1661889775.2,286046996.0,N
1661889795.0,286046994.9,N
1661889795.9,286046994.9,N
1661889815.7,286046998.0,N
1661889835.6,286046997.9,N
1661889855.4,286046997.2,N
1661889875.3,286046997.5,N
1661889895.1,286046996.6,N
1661889896.0,286046996.6,N
1661889915.8,286046999.5,N
1661889935.7,286046999.3,N
1661889955.5,286046997.7,N
1661889975.4,286046996.8,N
1661889995.2,286047001.1,N
1661890015.0,286047000.7,N
1661890015.9,286047000.7,N
1661890035.8,286047001.1,N
1661890055.6,286046996.5,N
1661890075.4,286046997.8,N
1661890095.3,286046997.0,N
1661890115.1,286046998.5,N
1661890135.9,286047000.7,N
1661890155.7,286046997.6,N
1661890175.5,286046995.7,N
1661890195.4,286046995.1,N
1661890215.2,286046995.3,N
1661890235.0,286046995.4,N
1661890236.0,286046995.4,N
1661890255.8,286046995.9,N
1661890275.6,286046991.8,Y
1661890295.5,286046995.5,P
1661890315.3,286046996.8,P
1661890335.1,286046999.1,N
1661890355.9,286047000.6,N
1661890375.7,286046999.4,N
1661890395.6,286047000.1,N
1661890415.4,286047002.7,N
1661890435.2,286046999.1,N
1661890455.1,286046998.9,N
1661890456.0,286046998.9,N
1661890475.8,286046998.8,N
1661890495.6,286046998.4,N
1661890515.5,286046999.2,N
1661890535.3,286046999.5,N
1661890555.2,286047000.5,N
1661890575.9,286046999.2,N
1661890595.7,286046999.0,N
1661890615.6,286046997.6,N
1661890635.4,286046996.7,N
1661890655.2,286046996.5,N
1661890675.1,286046999.5,N
1661890676.0,286046999.5,N
1661890695.8,286046999.1,N
1661890715.7,286046998.9,N
1661890735.5,286047000.2,N
1661890755.3,286047001.8,N
1661890775.2,286047002.0,N
1661890795.0,286046998.8,N
1661890795.9,286046998.8,N
1661890815.8,286046997.0,N
1661890835.6,286046998.4,N
1661890855.4,286046998.8,N
1661890875.3,286046998.4,N
1661890895.1,286046997.1,N
1661890915.9,286046997.2,N
1661890935.7,286046997.2,N
1661890955.5,286046998.4,N
1661890975.4,286047001.2,N
1661890995.2,286046997.1,N
1661891015.0,286046996.8,N
1661891015.9,286046996.8,N
1661891035.8,286046999.1,N
1661891055.6,286046999.4,N
1661891075.5,286047000.8,N
1661891095.3,286047000.1,N
1661891115.1,286047001.1,N
1661891135.9,286046998.9,N
1661891155.7,286046996.6,N
1661891175.5,286046994.9,Y
1661891195.4,286046998.8,P
1661891215.2,286046997.3,P
1661891235.1,286046996.6,P
1661891236.0,286046996.6,Y
1661891255.8,286047002.7,P
1661891275.6,286046999.7,N
1661891295.5,286046999.8,N
1661891315.3,286047000.9,N
1661891335.2,286047002.6,N
1661891355.9,286047001.8,N
1661891375.7,286046999.9,N
1661891395.6,286046999.0,N
1661891415.4,286047000.5,N
1661891435.2,286047001.8,N
1661891455.1,286047002.2,N
1661891456.0,286047002.2,N
1661891475.8,286047002.4,N
1661891495.7,286047004.4,N
1661891515.5,286047001.3,N
1661891535.3,286047005.4,Y
1661891555.2,286047004.1,P
1661891575.0,286046999.7,N
1661891575.9,286046999.7,N
1661891595.7,286047003.3,N
1661891615.6,286047004.2,N
1661891635.4,286046999.9,N
1661891655.3,286047005.8,N
1661891675.1,286047005.1,N
1661891676.0,286047005.1,N
1661891695.8,286047005.9,N
1661891715.7,286047002.3,N
1661891735.5,286047000.7,N
1661891755.4,286046998.6,N
1661891775.2,286047001.0,N
1661891795.0,286046998.1,N
1661891795.9,286046998.1,N
1661891815.8,286046998.1,N
1661891835.6,286046998.2,N
1661891855.4,286046999.8,N
1661891875.3,286047002.3,N
1661891895.1,286047004.4,N
1661891915.9,286047004.3,N
1661891935.7,286047000.1,N
1661891955.5,286047001.4,N
1661891975.4,286047000.1,N
1661891995.2,286047002.0,N
1661892015.0,286046999.9,N
1661892015.9,286046999.9,N
1661892035.8,286047000.9,N
1661892055.6,286047000.3,N
1661892075.5,286046998.1,N
1661892095.3,286047000.4,N
1661892115.1,286047000.1,N
1661892135.9,286047000.2,N
1661892155.7,286047002.0,N
1661892175.5,286047002.8,N
1661892195.4,286047000.2,N
1661892215.2,286047003.3,N
1661892235.1,286047003.2,N
1661892236.0,286047003.2,N
1661892255.8,286047002.4,N
1661892275.6,286047000.0,N
1661892295.5,286047000.6,N
1661892315.3,286046999.7,N
1661892335.1,286046998.2,N
1661892355.9,286047000.3,N
1661892375.7,286047001.4,N
1661892395.6,286047001.5,N
1661892415.4,286047004.0,N
1661892435.2,286047006.0,Y
1661892455.1,286047001.0,P
1661892456.0,286047001.0,P
1661892475.8,286046998.5,P
1661892495.7,286046996.5,Y
1661892515.5,286046996.5,P
1661892535.3,286046997.0,N
1661892555.2,286046995.7,N
1661892575.0,286046995.7,N
1661892575.9,286046995.7,N
1661892595.7,286046997.6,N
1661892615.6,286046995.1,Y
1661892635.4,286046999.5,P
1661892655.3,286047000.7,N
1661892675.1,286047001.7,N
1661892695.8,286047004.4,N
1661892715.7,286047002.3,N
1661892735.5,286047001.4,N
1661892755.4,286047001.9,N
1661892775.2,286047002.2,N
1661892795.0,286047002.1,N
1661892795.9,286047002.1,N
1661892815.8,286047001.6,N
1661892835.6,286047003.1,N
1661892855.4,286047003.6,N
1661892875.3,286047003.1,N
1661892895.1,286047004.5,N
1661892915.9,286047005.1,N
1661892935.7,286047007.2,Y
1661892955.5,286047003.2,P
1661892975.4,286047001.9,P
1661892995.2,286047003.8,P
1661893015.0,286047004.9,Y
1661893015.9,286047004.9,P
1661893035.8,286047002.3,N
1661893055.6,286047002.6,N
1661893075.5,286047004.0,Y
1661893095.3,286046998.1,P
1661893115.1,286046999.6,N
1661893135.9,286046996.8,N
1661893155.7,286046995.8,N
1661893175.5,286046997.8,N
1661893195.4,286046993.6,N
